Zurück zum Katalog

DELTA 1 R/B(1)

AktivUNKNOWN
NORAD 15202·ROCKET BODY·🇺🇸 United States

Gestartet Aug 16, 1984 von Cape Canaveral Space Force Station

Loading…

Nächste Überflüge (nächste 24 Stunden)

TLE

AktuellSource: Space-Track

Epoche: Sep 14, 2026, 11:59 UTC

1 15202U 84088D   26257.49931500  .00000288  00000-0  14179-3 0  9994
2 15202  28.9190 338.3970 1982941 310.3925  33.9373 10.82359407659569

Verfolge DELTA 1 R/B(1) in Echtzeit mit AllMySat

Download on the App Store